Location: Prague
(50.0830°N, 14.4670°E)
Time: 14:55:24
(UTC+02:00)

BEESAT 3 - Visible Passes

Search period start: 28 March 2023 00:00
Search period end: 07 April 2023 00:00
Orbit: 411 x 437 km, 64.9° (Epoch: 27 March)

Date Brightness Start Highest point End Pass type
(mag) Time Alt. Az. Time Alt. Az. Time Alt. Az.
28 Mar ? 03:43:58 22° ENE 03:43:58 22° ENE 03:45:34 10° ENE visible
28 Mar ? 05:17:04 25° WNW 05:18:08 31° NW 05:21:16 10° NNE visible
29 Mar ? 04:33:24 50° NNW 04:33:24 50° NNW 04:36:31 10° NNE visible
29 Mar ? 06:07:56 10° NW 06:09:33 13° NNW 06:11:09 10° N visible
30 Mar ? 03:49:32 32° NE 03:49:32 32° NE 03:51:31 10° NE visible
30 Mar ? 05:22:36 14° WNW 05:24:10 17° NNW 05:26:33 10° NNE visible
31 Mar ? 03:05:30 15° NE 03:05:30 15° NE 03:06:12 10° NE visible
31 Mar ? 04:38:34 25° NW 04:38:42 25° NW 04:41:38 10° NNE visible
01 Apr ? 03:54:20 30° N 03:54:20 30° N 03:56:28 10° NNE visible
01 Apr ? 05:28:36 10° NW 05:29:42 11° NNW 05:30:48 10° N visible
02 Apr ? 03:09:56 19° NE 03:09:56 19° NE 03:11:04 10° NE visible
02 Apr ? 04:42:58 14° NW 04:43:49 15° NNW 04:45:54 10° N visible
03 Apr ? 03:58:24 21° NNW 03:58:24 21° NNW 04:00:36 10° NNE visible
04 Apr ? 03:13:39 20° N 03:13:39 20° N 03:15:02 10° NNE visible
04 Apr ? 04:48:15 10° NNW 04:48:27 10° NNW 04:48:40 10° NNW visible
05 Apr ? 02:28:44 13° NNE 02:28:44 13° NNE 02:29:13 10° NE visible
05 Apr ? 04:01:44 13° NNW 04:02:06 13° NNW 04:03:52 10° N visible
06 Apr ? 03:16:38 17° N 03:16:38 17° N 03:18:10 10° NNE visible
